Previsão horária em Abbotsford

Hoje, 15 Abril, Quinta-feira

Tempo Temperatura Precipitação Vento Pressão Humidade
00:00 +9°C° 0 mm 1 m/s 756 mmHg 70%
01:00 +9°C° 0 mm 1 m/s 756 mmHg 70%
02:00 +9°C° 0 mm 1 m/s 756 mmHg 69%
03:00 +9°C° 0 mm 1 m/s 756 mmHg 69%
04:00 +7°C° 0 mm 2 m/s 757 mmHg 69%
05:00 +9°C° 0 mm 1 m/s 757 mmHg 66%
06:00 +11°C° 0 mm 1 m/s 757 mmHg 63%
07:00 +12°C° 0 mm 1 m/s 757 mmHg 60%
08:00 +14°C° 0 mm 1 m/s 756 mmHg 53%
09:00 +18°C° 0 mm 1 m/s 756 mmHg 46%
10:00 +20°C° 0 mm 1 m/s 756 mmHg 39%
11:00 +21°C° 0 mm 1 m/s 756 mmHg 38%
12:00 +22°C° 0 mm 1 m/s 756 mmHg 36%
13:00 +23°C° 0 mm 1 m/s 756 mmHg 34%
14:00 +23°C° 0 mm 2 m/s 756 mmHg 37%
15:00 +23°C° 0 mm 2 m/s 756 mmHg 39%
16:00 +23°C° 0 mm 2 m/s 755 mmHg 41%
17:00 +20°C° 0 mm 1 m/s 756 mmHg 51%
18:00 +18°C° 0 mm 1 m/s 756 mmHg 62%
19:00 +14°C° 0 mm 1 m/s 756 mmHg 72%
20:00 +14°C° 0 mm 1 m/s 756 mmHg 72%
21:00 +13°C° 0 mm 1 m/s 756 mmHg 73%
22:00 +12°C° 0 mm 1 m/s 757 mmHg 73%
23:00 +12°C° 0 mm 1 m/s 757 mmHg 73%

Amanhã, 16 Abril, Sexta-feira

Tempo Temperatura Precipitação Vento Pressão Humidade
00:00 +12°C° 0 mm 1 m/s 757 mmHg 73%
01:00 +11°C° 0 mm 1 m/s 757 mmHg 73%
02:00 +11°C° 0 mm 1 m/s 758 mmHg 72%
03:00 +11°C° 0 mm 1 m/s 758 mmHg 72%
04:00 +11°C° 0 mm 1 m/s 758 mmHg 71%
05:00 +12°C° 0 mm 1 m/s 758 mmHg 68%
06:00 +13°C° 0 mm 1 m/s 758 mmHg 65%
07:00 +14°C° 0 mm 1 m/s 758 mmHg 62%
08:00 +16°C° 0 mm 1 m/s 758 mmHg 55%
09:00 +20°C° 0 mm 1 m/s 758 mmHg 47%
10:00 +22°C° 0 mm 1 m/s 758 mmHg 40%
11:00 +23°C° 0 mm 1 m/s 758 mmHg 39%
12:00 +24°C° 0 mm 1 m/s 758 mmHg 37%
13:00 +25°C° 0 mm 2 m/s 758 mmHg 36%
14:00 +25°C° 0 mm 2 m/s 757 mmHg 37%
15:00 +24°C° 0 mm 1 m/s 757 mmHg 39%
16:00 +24°C° 0 mm 1 m/s 757 mmHg 41%
17:00 +22°C° 0 mm 1 m/s 757 mmHg 51%
18:00 +19°C° 0 mm 1 m/s 757 mmHg 61%
19:00 +15°C° 0 mm 0 m/s 757 mmHg 70%
20:00 +15°C° 0 mm 1 m/s 757 mmHg 71%
21:00 +15°C° 0 mm 1 m/s 757 mmHg 71%
22:00 +14°C° 0 mm 1 m/s 757 mmHg 71%
23:00 +14°C° 0 mm 1 m/s 757 mmHg 71%

Depois de amanhã, 17 Abril, Sábado

Tempo Temperatura Precipitação Vento Pressão Humidade
00:00 +13°C° 0 mm 1 m/s 757 mmHg 71%
01:00 +13°C° 0 mm 1 m/s 757 mmHg 72%
02:00 +13°C° 0 mm 1 m/s 757 mmHg 71%
03:00 +13°C° 0 mm 1 m/s 757 mmHg 71%
04:00 +12°C° 0 mm 1 m/s 757 mmHg 71%
05:00 +14°C° 0 mm 1 m/s 757 mmHg 68%
06:00 +15°C° 0 mm 1 m/s 757 mmHg 65%
07:00 +16°C° 0 mm 1 m/s 757 mmHg 62%
08:00 +19°C° 0 mm 1 m/s 757 mmHg 55%
09:00 +21°C° 0 mm 1 m/s 757 mmHg 49%
10:00 +24°C° 0 mm 1 m/s 757 mmHg 42%
11:00 +24°C° 0 mm 1 m/s 757 mmHg 41%
12:00 +25°C° 0 mm 1 m/s 757 mmHg 39%
13:00 +26°C° 0 mm 2 m/s 757 mmHg 38%
14:00 +26°C° 0 mm 2 m/s 756 mmHg 40%
15:00 +25°C° 0 mm 2 m/s 756 mmHg 41%
16:00 +25°C° 0 mm 2 m/s 756 mmHg 43%
17:00 +23°C° 0 mm 1 m/s 756 mmHg 53%
18:00 +20°C° 0 mm 1 m/s 756 mmHg 64%
19:00 +16°C° 0 mm 0 m/s 756 mmHg 74%
20:00 +15°C° 0 mm 0 m/s 756 mmHg 75%
21:00 +15°C° 0 mm 1 m/s 756 mmHg 77%
22:00 +14°C° 0 mm 1 m/s 756 mmHg 78%
23:00 +14°C° 0 mm 1 m/s 756 mmHg 78%

18 Abril, Domingo

Tempo Temperatura Precipitação Vento Pressão Humidade
00:00 +14°C° 0 mm 1 m/s 756 mmHg 79%
01:00 +14°C° 0 mm 1 m/s 756 mmHg 80%
02:00 +13°C° 0 mm 1 m/s 756 mmHg 80%
03:00 +13°C° 0 mm 1 m/s 756 mmHg 80%
04:00 +13°C° 0 mm 1 m/s 756 mmHg 80%
05:00 +14°C° 0 mm 1 m/s 756 mmHg 77%
06:00 +15°C° 0 mm 1 m/s 756 mmHg 73%
07:00 +15°C° 0 mm 0 m/s 756 mmHg 70%
08:00 +19°C° 0 mm 1 m/s 756 mmHg 61%
09:00 +21°C° 0 mm 1 m/s 756 mmHg 53%
10:00 +23°C° 0 mm 1 m/s 756 mmHg 45%
11:00 +24°C° 0 mm 1 m/s 755 mmHg 42%
12:00 +24°C° 0 mm 2 m/s 755 mmHg 39%
13:00 +25°C° 0 mm 2 m/s 755 mmHg 37%
14:00 +25°C° 0 mm 2 m/s 755 mmHg 37%
15:00 +25°C° 0 mm 2 m/s 754 mmHg 37%
16:00 +24°C° 0 mm 2 m/s 754 mmHg 37%
17:00 +22°C° 0 mm 1 m/s 754 mmHg 47%
18:00 +19°C° 0 mm 1 m/s 754 mmHg 57%
19:00 +15°C° 0 mm 0 m/s 754 mmHg 67%
20:00 +15°C° 0 mm 1 m/s 754 mmHg 67%
21:00 +15°C° 0 mm 1 m/s 754 mmHg 68%
22:00 +14°C° 0 mm 1 m/s 754 mmHg 68%
23:00 +14°C° 0 mm 2 m/s 755 mmHg 68%

19 Abril, Segunda-feira

Tempo Temperatura Precipitação Vento Pressão Humidade
00:00 +13°C° 0 mm 2 m/s 755 mmHg 68%
01:00 +13°C° 0 mm 2 m/s 755 mmHg 69%
02:00 +13°C° 0 mm 1 m/s 756 mmHg 69%
03:00 +12°C° 0 mm 1 m/s 756 mmHg 70%
04:00 +12°C° 0 mm 1 m/s 757 mmHg 71%
05:00 +13°C° 0 mm 1 m/s 757 mmHg 69%
06:00 +14°C° 0 mm 1 m/s 757 mmHg 68%
07:00 +15°C° 0 mm 1 m/s 757 mmHg 67%
08:00 +16°C° 0 mm 1 m/s 757 mmHg 61%
09:00 +19°C° 0 mm 1 m/s 757 mmHg 54%
10:00 +19°C° 0 mm 2 m/s 757 mmHg 48%
11:00 +20°C° 0 mm 2 m/s 757 mmHg 47%
12:00 +20°C° 0 mm 2 m/s 757 mmHg 46%
13:00 +21°C° 0 mm 2 m/s 756 mmHg 45%
14:00 +20°C° 0 mm 2 m/s 756 mmHg 49%
15:00 +19°C° 0 mm 2 m/s 756 mmHg 54%
16:00 +18°C° 0 mm 2 m/s 756 mmHg 59%
17:00 +16°C° 0 mm 1 m/s 757 mmHg 66%
18:00 +15°C° 0 mm 1 m/s 757 mmHg 72%
19:00 +14°C° 0 mm 1 m/s 757 mmHg 79%
20:00 +13°C° 0 mm 1 m/s 757 mmHg 80%
21:00 +13°C° 0 mm 1 m/s 757 mmHg 82%
22:00 +12°C° 0 mm 1 m/s 757 mmHg 83%
23:00 +12°C° 0 mm 1 m/s 757 mmHg 83%

20 Abril, Terça-feira

Tempo Temperatura Precipitação Vento Pressão Humidade
00:00 +12°C° 0 mm 1 m/s 757 mmHg 83%
01:00 +12°C° 0 mm 1 m/s 757 mmHg 82%
02:00 +12°C° 0.1 mm 1 m/s 758 mmHg 86%
03:00 +11°C° 0.1 mm 1 m/s 758 mmHg 89%
04:00 +11°C° 0.1 mm 1 m/s 758 mmHg 93%
05:00 +11°C° 0.4 mm 1 m/s 758 mmHg 94%
06:00 +11°C° 0.4 mm 1 m/s 758 mmHg 95%
07:00 +10°C° 0.4 mm 1 m/s 757 mmHg 96%
08:00 +10°C° 0.8 mm 1 m/s 758 mmHg 96%
09:00 +10°C° 0.8 mm 1 m/s 758 mmHg 96%
10:00 +9°C° 0.8 mm 2 m/s 758 mmHg 96%
11:00 +10°C° 0.8 mm 1 m/s 758 mmHg 96%
12:00 +10°C° 0.8 mm 1 m/s 758 mmHg 95%
13:00 +9°C° 0.8 mm 0 m/s 758 mmHg 95%
14:00 +9°C° 0.8 mm 0 m/s 758 mmHg 95%
15:00 +9°C° 0.8 mm 0 m/s 758 mmHg 96%
16:00 +9°C° 0.8 mm 0 m/s 758 mmHg 96%
17:00 +9°C° 0.7 mm 0 m/s 758 mmHg 97%
18:00 +9°C° 0.7 mm 0 m/s 758 mmHg 97%
19:00 +9°C° 0.7 mm 0 m/s 758 mmHg 98%
20:00 +9°C° 0.1 mm 0 m/s 758 mmHg 98%
21:00 +8°C° 0.1 mm 0 m/s 758 mmHg 97%
22:00 +8°C° 0.1 mm 0 m/s 758 mmHg 97%
23:00 +8°C° 0 mm 0 m/s 758 mmHg 97%
Mostrar mais

Necessitamos do seu Consentimento

A Meteoprog e os seus Fornecedores de Serviços podem armazenar e aceder a dados pessoais como cookies, identificadores do dispositivo ou outras tecnologias semelhantes existentes no seu dispositivo e processar estes dados para personalizar conteúdos e anúncios, assim como funcionalidades nas redes sociais e análise de tráfego.

  • Armazenar e/ou aceder a informações no seu dispositivo

    Os cookies, identificadores do dispositivo ou outras informações podem ser armazenados ou acedidos no seu dispositivo, para os fins acima indicados.

  • Anúncios e conteúdos personalizados, medição de anúncios e conteúdos, dados sobre o público-alvo e desenvolvimento de produtos

    Os anúncios e os conteúdos podem ser personalizados com base num perfil. Podem ser adicionados dados adicionais para uma maior personalização dos anúncios e dos conteúdos. A eficácia dos anúncios e dos conteúdos pode ser medida. Podem ser obtidas informações sobre o público que visualizou os anúncios e os conteúdos. Estes dados podem ser usados para desenvolver ou melhorar sistemas, softwares ou a experiência do utilizador.

Ao clicar em "Eu concordo”, permitirá o uso de cookies, identificadores do dispositivo e web beacons mencionados ou outras tecnologias semelhantes. As configurações do navegador do seu dispositivo podem ser alteradas.

Para certos fins, podem ser invocados interesses legítimos ao invés de consentimento. Pode ler mais informação sobre este assunto na nossa Política de Privacidade e Cookies.